User: anonymous   Login
Location: *
(46.0770°N, 1.6444°E)
Time: 17:54:20
(UTC+00:00)
Language:

GEOS 3 Rocket - Orbit

View from above orbital plane
View from above orbital plane
View from above satellite
View from above satellite

Ground track
Ground track

The orbit data is extracted from the following two-line orbital elements,

1  7735U 75027B   19320.49112589 -.00000147 +00000-0 +13448-4 0  9994
2  7735 114.9741 113.9672 0030328 015.5553 344.6455 14.24593315315849
Epoch (UTC): 16 November 2019 11:47:13
Eccentricity: 0.0030328
inclination: 114.9741°
perigee height: 788 km
apogee height: 831 km
right ascension of ascending node: 113.9672°
argument of perigee: 15.5553°
revolutions per day: 14.24593315
mean anomaly at epoch: 344.6455°
orbit number at epoch: 31584

The dashed part of the orbit path shows where the satellite is in the earth's shadow,  

DLR